Regional Weather Roundup
Issued by NWS Jackson, KY

Home | Current Version | Previous Version | Text Only | Print | Product List | Glossary Off
Versions: 1 2 3 4 5 6 7 8 9 10 11 12 13 14 15 16 17 18 19 20 21 22 23 24 25 26 27 28 29 30 31 32 33 34 35 36 37 38 39 40 41 42 43 44 45 46 47 48 49 50

000
ASUS43 KJKL 012110
RWRJKL

EAST KENTUCKY HOURLY WEATHER ROUNDUP
NATIONAL WEATHER SERVICE JACKSON KY
500 PM EDT MON JUN 01 2015

NOTE: "FAIR" INDICATES FEW OR NO CLOUDS BELOW 12,000 FEET WITH
NO SIGNIFICANT WEATHER AND/OR OBSTRUCTIONS TO VISIBILITY.

* THESE REPORTS ARE NOT UNDER NWS QUALITY CONTROL AND MAY NOT
  REPORT WEATHER SUCH AS PRECIPITATION AND FOG.

KYZ079-080-083-085-087-088-110-112-115-119-120-012200
...EASTERN KENTUCKY...

CITY           SKY/WX    TMP DP  RH WIND       PRES   REMARKS
JACKSON        LGT RAIN  60  58  92 VRB3      30.07R FOG
LONDON         CLOUDY    66  58  75 NW8       30.06F
SOMERSET*      CLOUDY    61  61 100 NE7       30.08S
MONTICELLO*    CLOUDY    67  66  96 N8        30.09S
MIDDLESBORO*   LGT RAIN  68  67  94 NE5       30.05S
HARLAN APT*    CLOUDY    64  64 100 NW3       30.06S
BLACK MTN*       N/A     61  59  94 NE2         N/A
PIKEVILLE APT* CLOUDY    64  63  94 NW9       30.05
BIG SANDY*     LGT RAIN  63  61  96 N7        30.06R
MOREHEAD APT*  CLOUDY    57  54  88 NW7       30.12R
$$

KYZ035-036-041-042-044-050-067-078-099-012200
...CENTRAL KENTUCKY...

CITY           SKY/WX    TMP DP  RH WIND       PRES   REMARKS
MT STERLING*   CLOUDY    55  54  94 NE7       30.11F
FLEMING/MASON* RAIN      54  52  94 N9        30.12S
DANVILLE*      LGT RAIN  57  55  94 NE6       30.10S
RICHMOND*      CLOUDY    57  54  88 CALM      30.09R
LEXINGTON      CLOUDY    57  54  89 N9        30.10S
FRANKFORT      CLOUDY    58  53  84 N5        30.10F
$$

KYZ091>093-OHZ055-061-077-WVZ005-015-034-035-042-012200
...SOUTHERN OHIO/WEST VIRGINIA...

CITY           SKY/WX    TMP DP  RH WIND       PRES   REMARKS
COVINGTON      CLOUDY    57  51  80 NE10      30.11F
COLUMBUS       LGT RAIN  55  51  86 N12       30.13F
DAYTON         LGT RAIN  57  53  86 NE16      30.14S
WILMINGTON     CLOUDY    54  50  86 N10       30.13S
HUNTINGTON     RAIN      58  54  86 N8        30.07S
CHARLESTON     LGT RAIN  65  60  84 N10       30.04S
PINEVILLE*     PTSUNNY   76  68  76 MISG      30.06S
BECKLEY        PTSUNNY   68  61  78 NE5       30.06R THUNDER
BLUEFIELD      PTSUNNY   72  63  73 SW6       30.06F
$$

VAZ002-007-008-TNZ017-027-036-066-071-012200
...SOUTHWEST VIRGINIA/EAST TENNESSEE...

CITY           SKY/WX    TMP DP  RH WIND       PRES   REMARKS
WISE*          CLOUDY    70  61  73 NW8       30.08S
JONESVILLE*    LGT RAIN  66  66 100 NW5       30.06R
ABINGDON*      CLOUDY    72  67  83 SW3       30.05S
BRISTOL        TSTM      69  64  84 S10G24    30.03S
KNOXVILLE      PTSUNNY   79  62  56 SW15      29.99F
OAK RIDGE      MOSUNNY   80  63  55 SW7       30.01F
CROSSVILLE     MOSUNNY   77  64  64 NW13      30.05S
NASHVILLE      CLOUDY    70  64  83 N8        30.04F
$$

...KEY TO REMARKS...
VSB - VISIBILITY IN MILES
WCI - WIND CHILL INDEX
HX  - HEAT INDEX

$$



USA.gov is the U.S. government's official web portal to all federal, state and local government web resources and services.